Weather History for Cincinnati, OH

Change the Weather History Date:

Thursday, January 17, 2013

  Actual Average Record
Temperature  
Mean Temperature 36 °F -  
Max Temperature 44 °F 37 °F 65 °F (1952)
Min Temperature 28 °F 22 °F -16 °F (1977)
Degree Days  
Heating Degree Days 29    
Moisture  
Dew Point 26 °F    
Average Humidity 72    
Maximum Humidity 92    
Minimum Humidity 49    
Precipitation  
Precipitation 0.00 in - - ()
Sea Level Pressure  
Sea Level Pressure 30.23 in    
Wind  
Wind Speed 5 mph (NNW)    
Max Wind Speed 13 mph    
Max Gust Speed 20 mph    
Visibility 9 miles    
Events      
Averages and records for this station are not official NWS values.
T = Trace of Precipitation, MM = Missing Value Source: NWS Daily Summary

Daily Weather History Graph

Daily Weather History Graph

Search for Another Location

Airport:

Trip Planner

Search our weather history database for the weather conditions in past years. The results will help you decide how hot, cold, wet, or windy it might be!

Date:

Astronomy

Jan. 17, 2013 Rise Set
Actual Time 7:54 AM EST 5:41 PM EST
Civil Twilight 7:25 AM EST 6:10 PM EST
Nautical Twilight 6:52 AM EST 6:43 PM EST
Astronomical Twilight 6:20 AM EST 7:15 PM EST
Moon 11:04 AM EST (1/17) No Moon Set
Length of Visible Light 10h 45m
Length of Day
9h 47m
Waxing Crescent, 37% of the Moon is Illuminated
Jan 17
Waxing Crescent
Jan 18
First Quarter
Jan 26
Full
Feb 3
Last Quarter
Feb 10
New

Hourly Weather History & Observations

Time (EST) Temp. Windchill Dew Point Humidity Pressure Visibility Wind Dir Wind Speed Gust Speed Precip Events Conditions
12:53 AM 32.0 °F 25.6 °F 28.0 °F 85% 30.14 in 8.0 mi SW 6.9 mph - N/A   Overcast
1:53 AM 32.0 °F 28.7 °F 27.0 °F 82% 30.15 in 9.0 mi SSW 3.5 mph - N/A   Overcast
2:53 AM 30.9 °F 27.5 °F 27.0 °F 85% 30.17 in 9.0 mi SW 3.5 mph - N/A   Scattered Clouds
3:53 AM 30.9 °F - 26.1 °F 82% 30.17 in 9.0 mi Calm Calm - N/A   Clear
4:53 AM 30.9 °F - 26.1 °F 82% 30.17 in 9.0 mi Calm Calm - N/A   Clear
5:53 AM 30.0 °F - 27.0 °F 88% 30.18 in 8.0 mi Calm Calm - N/A   Clear
6:53 AM 30.0 °F - 27.0 °F 88% 30.18 in 8.0 mi Calm Calm - N/A   Clear
7:53 AM 28.9 °F - 27.0 °F 92% 30.21 in 8.0 mi Calm Calm - N/A   Clear
8:53 AM 30.0 °F - 28.0 °F 92% 30.24 in 6.0 mi Calm Calm - N/A   Clear
9:53 AM 30.9 °F 27.5 °F 28.0 °F 89% 30.25 in 7.0 mi NNE 3.5 mph - N/A   Clear
10:53 AM 34.0 °F - 28.0 °F 79% 30.25 in 7.0 mi Calm Calm - N/A   Clear
11:53 AM 36.0 °F - 28.0 °F 73% 30.22 in 8.0 mi Calm Calm - N/A   Clear
12:53 PM 39.0 °F 32.3 °F 28.0 °F 65% 30.16 in 10.0 mi North 10.4 mph - N/A   Clear
1:53 PM 42.1 °F 35.2 °F 28.9 °F 60% 30.15 in 10.0 mi NE 12.7 mph 19.6 mph N/A   Clear
2:53 PM 44.1 °F 40.8 °F 28.9 °F 55% 30.16 in 10.0 mi North 5.8 mph - N/A   Clear
3:27 PM 44.6 °F 38.4 °F 26.6 °F 49% 30.16 in 10.0 mi North 12.7 mph 19.6 mph N/A   Clear
3:53 PM 42.1 °F 36.1 °F 25.0 °F 51% 30.16 in 10.0 mi North 10.4 mph - N/A   Clear
4:53 PM 42.1 °F 36.1 °F 25.0 °F 51% 30.21 in 10.0 mi North 10.4 mph - N/A   Clear
5:53 PM 39.0 °F 34.0 °F 25.0 °F 57% 30.27 in 10.0 mi North 6.9 mph - N/A   Clear
6:53 PM 37.0 °F 31.6 °F 25.0 °F 62% 30.28 in 10.0 mi North 6.9 mph - N/A   Clear
7:53 PM 36.0 °F 29.6 °F 24.1 °F 62% 30.32 in 10.0 mi NNW 8.1 mph - N/A   Clear
8:53 PM 35.1 °F 31.0 °F 23.0 °F 61% 30.34 in 10.0 mi NW 4.6 mph - N/A   Partly Cloudy
9:53 PM 33.1 °F 25.5 °F 24.1 °F 70% 30.38 in 10.0 mi NNW 9.2 mph - N/A   Clear
10:53 PM 30.9 °F 24.3 °F 21.9 °F 69% 30.40 in 10.0 mi NNW 6.9 mph - N/A   Clear
11:53 PM 28.9 °F 21.1 °F 19.0 °F 67% 30.43 in 10.0 mi NNW 8.1 mph - N/A   Clear